This is the latest recevied weather packets stored in our database for station/object KO6TH-15. If no packets are shown the sender has not sent any weather packets the latest 10 day(s).
| Time | Temp. | Humidity | Pressure | Rain* | Wind** | Luminosity | Snow |
|---|---|---|---|---|---|---|---|
| 1778220859 | 14.44° C | 98% | 0 hPa | 0 mm | - | - | - |
| 1778220259 | 14.44° C | 98% | 0 hPa | 0 mm | - | - | - |
| 1778219629 | 15° C | 99% | 0 hPa | 0 mm | - | - | - |
| 1778219029 | 15° C | 99% | 0 hPa | 0 mm | - | - | - |
| 1778218399 | 15° C | 98% | 0 hPa | 0 mm | - | - | - |
| 1778217769 | 15.56° C | 97% | 0 hPa | 0 mm | - | - | - |
| 1778217169 | 16.11° C | 97% | 0 hPa | 0 mm | - | - | - |
| 1778216539 | 16.11° C | 94% | 0 hPa | 0 mm | - | - | - |
| 1778215909 | 16.67° C | 94% | 0 hPa | 0 mm | - | - | - |
| 1778215309 | 16.67° C | 96% | 0 hPa | 0 mm | - | - | - |
| 1778214679 | 17.22° C | 91% | 0 hPa | 0 mm | - | - | - |
| 1778214079 | 17.22° C | 92% | 0 hPa | 0 mm | - | - | - |
| 1778213449 | 17.78° C | 89% | 0 hPa | 0 mm | - | - | - |
| 1778212819 | 18.33° C | 89% | 0 hPa | 0 mm | - | - | - |
| 1778212189 | 18.89° C | 86% | 0 hPa | 0 mm | - | - | - |
| 1778211559 | 19.44° C | 84% | 0 hPa | 0 mm | - | - | - |
| 1778210929 | 20° C | 84% | 0 hPa | 0 mm | - | - | - |
| 1778210329 | 20.56° C | 81% | 0 hPa | 0 mm | - | - | - |
| 1778209729 | 21.67° C | 78% | 0 hPa | 0 mm | - | - | - |
| 1778209099 | 22.22° C | 78% | 0 hPa | 0 mm | - | - | - |
| 1778208499 | 22.78° C | 75% | 0 hPa | 0 mm | - | - | - |
| 1778207870 | 23.33° C | 72% | 0 hPa | 0 mm | - | - | - |
| 1778207269 | 23.89° C | 69% | 0 hPa | 0 mm | - | - | - |
| 1778206669 | 24.44° C | 67% | 0 hPa | 0 mm | - | - | - |
| 1778206069 | 24.44° C | 66% | 0 hPa | 0 mm | - | - | - |
* Rain latest hour (hover to see other rain measurements)
** Current wind speed in m/s (hover to see current wind gust speed)